| time (UTC) | temp F | wind direction | speed knots | gust knots | rain 1hr in | rain 24hr in | rain mn in | humidity % | barometer mb |
| 20260906191146 | 74 | 102 | 2.6 | 2.6 | 0.00 | 0.00 | 0.00 | 80 | 1021.9 |
| 20260906190646 | 74 | 34 | 2.6 | 4.3 | 0.00 | 0.00 | 0.00 | 81 | 1022.2 |
| 20260906190141 | 75 | 138 | 1.7 | 2.6 | 0.00 | 0.00 | 0.00 | 80 | 1022.0 |
| 20260906185640 | 76 | 171 | 1.7 | 1.7 | 0.00 | 0.00 | 0.00 | 81 | 1022.2 |
| 20260906185139 | 76 | 130 | 0.9 | 0.9 | 0.00 | 0.00 | 0.00 | 80 | 1022.3 |
| 20260906184634 | 75 | 128 | 0.0 | 0.0 | 0.00 | 0.00 | 0.00 | 81 | 1022.2 |
| 20260906184130 | 75 | 153 | 3.5 | 4.3 | 0.00 | 0.00 | 0.00 | 82 | 1022.3 |
| 20260906183625 | 75 | 34 | 1.7 | 2.6 | 0.00 | 0.00 | 0.00 | 81 | 1022.4 |
| 20260906183121 | 76 | 156 | 1.7 | 1.7 | 0.00 | 0.00 | 0.00 | 81 | 1022.3 |
| 20260906182616 | 75 | 208 | 1.7 | 1.7 | 0.00 | 0.00 | 0.00 | 80 | 1022.5 |
| 20260906182113 | 75 | 146 | 0.0 | 0.9 | 0.00 | 0.00 | 0.00 | 82 | 1022.4 |
| 20260906181612 | 75 | 57 | 5.2 | 7.8 | 0.00 | 0.00 | 0.00 | 81 | 1022.7 |
| 20260906181108 | 76 | 185 | 0.9 | 1.7 | 0.00 | 0.00 | 0.00 | 81 | 1022.3 |
| 20260906180604 | 75 | 160 | 0.9 | 0.9 | 0.00 | 0.00 | 0.00 | 80 | 1022.4 |
| 20260906175601 | 74 | 160 | 2.6 | 4.3 | 0.00 | 0.00 | 0.00 | 81 | 1022.6 |
| 20260906175056 | 75 | 172 | 1.7 | 1.7 | 0.00 | 0.00 | 0.00 | 80 | 1022.7 |
| 20260906174548 | 75 | 169 | 1.7 | 1.7 | 0.00 | 0.00 | 0.00 | 81 | 1022.3 |
| 20260906174043 | 75 | 108 | 1.7 | 2.6 | 0.00 | 0.00 | 0.00 | 80 | 1022.7 |
| 20260906173538 | 74 | 147 | 0.0 | 0.9 | 0.00 | 0.00 | 0.00 | 81 | 1022.7 |
| 20260906173035 | 75 | 102 | 2.6 | 2.6 | 0.00 | 0.00 | 0.00 | 82 | 1022.6 |
| 20260906172529 | 75 | 155 | 0.0 | 0.0 | 0.00 | 0.00 | 0.00 | 81 | 1022.6 |
| 20260906172024 | 75 | 158 | 0.0 | 0.0 | 0.00 | 0.00 | 0.00 | 80 | 1022.7 |
| 20260906171519 | 74 | 143 | 0.0 | 0.9 | 0.00 | 0.00 | 0.00 | 81 | 1022.5 |
| 20260906171014 | 74 | 113 | 3.5 | 5.2 | 0.00 | 0.00 | 0.00 | 81 | 1022.7 |
| 20260906170510 | 74 | 148 | 0.9 | 1.7 | 0.00 | 0.00 | 0.00 | 81 | 1022.6 |
| 20260906170009 | 74 | 53 | 3.5 | 6.1 | 0.00 | 0.00 | 0.00 | 82 | 1022.6 |
| 20260906165506 | 73 | 52 | 3.5 | 5.2 | 0.00 | 0.00 | 0.00 | 82 | 1022.6 |
| 20260906165001 | 75 | 62 | 4.3 | 7.0 | 0.00 | 0.00 | 0.00 | 82 | 1022.6 |
| 20260906164500 | 74 | 125 | 0.9 | 1.7 | 0.00 | 0.00 | 0.00 | 83 | 1022.5 |
| 20260906163957 | 74 | 213 | 1.7 | 1.7 | 0.00 | 0.00 | 0.00 | 83 | 1022.8 |
| 20260906163451 | 74 | 112 | 2.6 | 4.3 | 0.00 | 0.00 | 0.00 | 83 | 1022.8 |
| 20260906162950 | 73 | 151 | 1.7 | 1.7 | 0.00 | 0.00 | 0.00 | 83 | 1022.7 |
| 20260906162449 | 74 | 71 | 1.7 | 4.3 | 0.00 | 0.00 | 0.00 | 84 | 1022.8 |
| 20260906161943 | 74 | 179 | 2.6 | 2.6 | 0.00 | 0.00 | 0.00 | 84 | 1022.5 |
| 20260906161438 | 74 | 132 | 0.9 | 0.9 | 0.00 | 0.00 | 0.00 | 84 | 1022.8 |
| 20260906160937 | 74 | 124 | 0.9 | 0.9 | 0.00 | 0.00 | 0.00 | 84 | 1022.7 |
| 20260906160430 | 73 | 163 | 1.7 | 1.7 | 0.00 | 0.00 | 0.00 | 84 | 1022.7 |
| 20260906155929 | 73 | 119 | 0.9 | 1.7 | 0.00 | 0.00 | 0.00 | 86 | 1022.6 |
| 20260906155422 | 72 | 131 | 2.6 | 4.3 | 0.00 | 0.00 | 0.00 | 85 | 1022.6 |
| 20260906154918 | 72 | 121 | 1.7 | 2.6 | 0.00 | 0.00 | 0.00 | 86 | 1022.7 |
| 20260906154413 | 72 | 134 | 1.7 | 4.3 | 0.00 | 0.00 | 0.00 | 86 | 1022.8 |
| 20260906153912 | 71 | 139 | 1.7 | 1.7 | 0.00 | 0.00 | 0.00 | 87 | 1022.7 |
| 20260906153410 | 71 | 47 | 1.7 | 1.7 | 0.00 | 0.00 | 0.00 | 89 | 1022.6 |
| 20260906152906 | 71 | 150 | 1.7 | 2.6 | 0.00 | 0.00 | 0.00 | 88 | 1022.8 |
| 20260906152401 | 71 | 232 | 3.5 | 4.3 | 0.00 | 0.00 | 0.00 | 87 | 1022.7 |
| 20260906151900 | 71 | 144 | 2.6 | 5.2 | 0.00 | 0.00 | 0.00 | 85 | 1023.1 |
| 20260906151355 | 70 | 199 | 0.9 | 1.7 | 0.00 | 0.00 | 0.00 | 87 | 1022.9 |
| 20260906150851 | 70 | 138 | 2.6 | 4.3 | 0.00 | 0.00 | 0.00 | 87 | 1022.9 |
| 20260906150347 | 69 | 132 | 2.6 | 5.2 | 0.00 | 0.00 | 0.00 | 89 | 1022.9 |
| 20260906145846 | 71 | 113 | 2.6 | 2.6 | 0.00 | 0.00 | 0.00 | 87 | 1022.9 |
| 20260906145345 | 70 | 146 | 0.9 | 1.7 | 0.00 | 0.00 | 0.00 | 90 | 1022.8 |
| 20260906144840 | 69 | 154 | 0.9 | 0.9 | 0.00 | 0.00 | 0.00 | 90 | 1022.6 |
| 20260906144335 | 69 | 161 | 2.6 | 2.6 | 0.00 | 0.00 | 0.00 | 90 | 1022.9 |
| 20260906143835 | 69 | 143 | 2.6 | 4.3 | 0.00 | 0.00 | 0.00 | 92 | 1022.7 |
| 20260906143331 | 68 | 181 | 0.9 | 0.9 | 0.00 | 0.00 | 0.00 | 92 | 1022.6 |
| 20260906142827 | 69 | 141 | 0.9 | 1.7 | 0.00 | 0.00 | 0.00 | 92 | 1022.6 |
| 20260906142321 | 68 | 173 | 1.7 | 1.7 | 0.00 | 0.00 | 0.00 | 91 | 1022.5 |
| 20260906141821 | 68 | 144 | 0.9 | 1.7 | 0.00 | 0.00 | 0.00 | 91 | 1022.9 |
| 20260906141316 | 68 | 136 | 0.0 | 0.9 | 0.00 | 0.00 | 0.00 | 94 | 1022.7 |
| 20260906140814 | 67 | 126 | 0.9 | 1.7 | 0.00 | 0.00 | 0.00 | 94 | 1023.2 |
| 20260906140309 | 67 | 195 | 0.9 | 1.7 | 0.00 | 0.00 | 0.00 | 94 | 1023.3 |
| 20260906135807 | 67 | 195 | 1.7 | 4.3 | 0.00 | 0.00 | 0.00 | 95 | 1023.2 |
| 20260906135305 | 67 | 134 | 1.7 | 2.6 | 0.00 | 0.00 | 0.00 | 96 | 1023.3 |
| 20260906134757 | 66 | 121 | 2.6 | 2.6 | 0.00 | 0.00 | 0.00 | 95 | 1023.1 |
| 20260906134252 | 65 | 144 | 0.0 | 0.9 | 0.00 | 0.00 | 0.00 | 97 | 1022.9 |
| 20260906133748 | 65 | 161 | 1.7 | 1.7 | 0.00 | 0.00 | 0.00 | 98 | 1023.1 |
| 20260906133243 | 64 | 120 | 0.0 | 0.0 | 0.00 | 0.00 | 0.00 | 99 | 1023.1 |
| 20260906132739 | 64 | 127 | 0.0 | 0.9 | 0.00 | 0.00 | 0.00 | 99 | 1023.2 |
| 20260906132234 | 64 | 161 | 0.9 | 0.9 | 0.00 | 0.00 | 0.00 | 99 | 1023.3 |
| 20260906131730 | 63 | 148 | 0.0 | 0.9 | 0.00 | 0.00 | 0.00 | 99 | 1023.2 |
| 20260906131225 | 62 | 128 | 0.9 | 1.7 | 0.00 | 0.00 | 0.00 | 99 | 1022.8 |
| 20260906130720 | 62 | 130 | 0.0 | 0.0 | 0.00 | 0.00 | 0.00 | 99 | 1022.7 |
| 20260906130215 | 62 | 142 | 0.0 | 0.9 | 0.00 | 0.00 | 0.00 | 99 | 1022.6 |
| 20260906125713 | 61 | 125 | 0.0 | 0.9 | 0.00 | 0.00 | 0.00 | 99 | 1022.7 |
| 20260906125212 | 61 | 162 | 0.0 | 0.9 | 0.00 | 0.00 | 0.00 | 99 | 1022.7 |
| 20260906124707 | 61 | 131 | 0.9 | 0.9 | 0.00 | 0.00 | 0.00 | 99 | 1022.8 |
| 20260906124203 | 61 | 98 | 1.7 | 2.6 | 0.00 | 0.00 | 0.00 | 99 | 1022.8 |
| 20260906123701 | 60 | 190 | 1.7 | 1.7 | 0.00 | 0.00 | 0.00 | 99 | 1022.8 |
| 20260906123157 | 60 | 139 | 0.9 | 1.7 | 0.00 | 0.00 | 0.00 | 99 | 1022.7 |
| 20260906122656 | 60 | 167 | 1.7 | 1.7 | 0.00 | 0.00 | 0.00 | 99 | 1022.6 |
| 20260906122151 | 60 | 126 | 0.9 | 0.9 | 0.00 | 0.00 | 0.00 | 99 | 1022.7 |
| 20260906121648 | 60 | 148 | 0.0 | 0.9 | 0.00 | 0.00 | 0.00 | 99 | 1022.6 |
| 20260906121144 | 59 | 150 | 0.0 | 0.0 | 0.00 | 0.00 | 0.00 | 99 | 1022.5 |
| 20260906120640 | 59 | 144 | 0.0 | 0.0 | 0.00 | 0.00 | 0.00 | 99 | 1022.7 |
| 20260906120137 | 59 | 145 | 0.0 | 0.0 | 0.00 | 0.00 | 0.00 | 99 | 1022.7 |
| 20260906115636 | 59 | 168 | 0.9 | 0.9 | 0.00 | 0.00 | 0.00 | 99 | 1022.3 |
| 20260906115132 | 59 | 147 | 0.9 | 0.9 | 0.00 | 0.00 | 0.00 | 99 | 1022.5 |
| 20260906114625 | 58 | 139 | 0.0 | 0.0 | 0.00 | 0.00 | 0.00 | 99 | 1022.2 |
| 20260906114121 | 58 | 146 | 0.0 | 0.0 | 0.00 | 0.00 | 0.00 | 99 | 1022.3 |
| 20260906113620 | 58 | 153 | 0.9 | 0.9 | 0.00 | 0.00 | 0.00 | 99 | 1022.3 |
| 20260906113115 | 58 | 151 | 0.9 | 0.9 | 0.00 | 0.00 | 0.00 | 99 | 1022.2 |
| 20260906112614 | 58 | 211 | 1.7 | 2.6 | 0.00 | 0.00 | 0.00 | 99 | 1022.3 |
| 20260906112112 | 58 | 161 | 0.0 | 0.0 | 0.00 | 0.00 | 0.00 | 99 | 1022.5 |
| 20260906111611 | 58 | 191 | 1.7 | 2.6 | 0.00 | 0.00 | 0.00 | 99 | 1022.3 |
| 20260906111106 | 58 | 151 | 0.0 | 0.0 | 0.00 | 0.00 | 0.00 | 99 | 1022.3 |
| 20260906110605 | 58 | 149 | 0.0 | 0.9 | 0.00 | 0.00 | 0.00 | 99 | 1022.0 |
| 20260906110100 | 59 | 185 | 0.0 | 0.9 | 0.00 | 0.00 | 0.00 | 99 | 1022.2 |
| 20260906105554 | 58 | 154 | 0.9 | 0.9 | 0.00 | 0.00 | 0.00 | 99 | 1022.3 |
| 20260906105051 | 58 | 154 | 0.0 | 0.0 | 0.00 | 0.00 | 0.00 | 99 | 1022.0 |
| 20260906104549 | 58 | 147 | 0.0 | 0.0 | 0.00 | 0.00 | 0.00 | 99 | 1022.2 |
| 20260906104044 | 58 | 150 | 0.0 | 0.0 | 0.00 | 0.00 | 0.00 | 99 | 1022.0 |
| 20260906103542 | 58 | 155 | 0.0 | 0.0 | 0.00 | 0.00 | 0.00 | 99 | 1022.4 |
| 20260906103038 | 58 | 153 | 0.0 | 0.0 | 0.00 | 0.00 | 0.00 | 99 | 1022.2 |
| 20260906102537 | 58 | 154 | 0.0 | 0.0 | 0.00 | 0.00 | 0.00 | 99 | 1022.3 |
| 20260906102032 | 58 | 158 | 0.0 | 0.0 | 0.00 | 0.00 | 0.00 | 99 | 1022.3 |
| 20260906101527 | 58 | 148 | 0.0 | 0.9 | 0.00 | 0.00 | 0.00 | 99 | 1022.3 |
| 20260906101022 | 58 | 159 | 0.0 | 0.0 | 0.00 | 0.00 | 0.00 | 99 | 1022.0 |
| 20260906100517 | 58 | 149 | 0.0 | 0.0 | 0.00 | 0.00 | 0.00 | 99 | 1021.9 |
| 20260906100012 | 58 | 154 | 0.0 | 0.0 | 0.00 | 0.00 | 0.00 | 99 | 1022.0 |
| 20260906095507 | 58 | 162 | 0.9 | 0.9 | 0.00 | 0.00 | 0.00 | 99 | 1022.1 |
| 20260906095003 | 58 | 152 | 0.0 | 0.9 | 0.00 | 0.00 | 0.00 | 99 | 1022.2 |
| 20260906094501 | 58 | 163 | 0.0 | 0.9 | 0.00 | 0.00 | 0.00 | 99 | 1022.1 |
| 20260906093957 | 58 | 153 | 0.0 | 0.0 | 0.00 | 0.00 | 0.00 | 99 | 1022.1 |
| 20260906093453 | 58 | 155 | 0.0 | 0.9 | 0.00 | 0.00 | 0.00 | 99 | 1022.1 |
| 20260906092954 | 58 | 156 | 0.0 | 0.0 | 0.00 | 0.00 | 0.00 | 99 | 1021.8 |
| 20260906092454 | 58 | 151 | 0.0 | 0.0 | 0.00 | 0.00 | 0.00 | 99 | 1021.9 |
| 20260906091949 | 58 | 148 | 0.0 | 0.9 | 0.00 | 0.00 | 0.00 | 99 | 1022.0 |
| 20260906091444 | 58 | 157 | 0.0 | 0.0 | 0.00 | 0.00 | 0.00 | 99 | 1021.8 |
| 20260906090941 | 58 | 162 | 0.0 | 0.0 | 0.00 | 0.00 | 0.00 | 99 | 1022.0 |
| 20260906090436 | 58 | 148 | 0.0 | 0.0 | 0.00 | 0.00 | 0.00 | 99 | 1022.2 |
| 20260906085936 | 58 | 152 | 0.0 | 0.0 | 0.00 | 0.00 | 0.00 | 99 | 1022.1 |
| 20260906085435 | 58 | 165 | 0.0 | 0.0 | 0.00 | 0.00 | 0.00 | 99 | 1022.1 |
| 20260906084935 | 58 | 150 | 0.0 | 0.0 | 0.00 | 0.00 | 0.00 | 99 | 1022.1 |
| 20260906084430 | 58 | 154 | 0.0 | 0.0 | 0.00 | 0.00 | 0.00 | 99 | 1021.9 |
| 20260906083928 | 58 | 154 | 0.0 | 0.0 | 0.00 | 0.00 | 0.00 | 99 | 1022.1 |
| 20260906083424 | 58 | 150 | 0.0 | 0.0 | 0.00 | 0.00 | 0.00 | 99 | 1022.1 |
| 20260906082924 | 57 | 150 | 0.0 | 0.0 | 0.00 | 0.00 | 0.00 | 99 | 1021.9 |
| 20260906082419 | 57 | 151 | 0.0 | 0.0 | 0.00 | 0.00 | 0.00 | 99 | 1021.9 |
| 20260906081915 | 57 | 149 | 0.0 | 0.0 | 0.00 | 0.00 | 0.00 | 99 | 1022.1 |
| 20260906081410 | 57 | 150 | 0.0 | 0.0 | 0.00 | 0.00 | 0.00 | 99 | 1022.1 |
| 20260906080906 | 57 | 155 | 0.0 | 0.0 | 0.00 | 0.00 | 0.00 | 99 | 1021.8 |
| 20260906080402 | 57 | 154 | 0.0 | 0.0 | 0.00 | 0.00 | 0.00 | 99 | 1021.9 |
| 20260906075901 | 56 | 151 | 0.0 | 0.9 | 0.00 | 0.00 | 0.00 | 99 | 1021.9 |
| 20260906075356 | 56 | 150 | 0.0 | 0.0 | 0.00 | 0.00 | 0.00 | 99 | 1021.9 |
| 20260906074852 | 56 | 148 | 0.0 | 0.0 | 0.00 | 0.00 | 0.00 | 99 | 1022.0 |
| 20260906074351 | 56 | 149 | 0.0 | 0.0 | 0.00 | 0.00 | 0.00 | 99 | 1021.8 |
| 20260906073850 | 56 | 151 | 0.0 | 0.0 | 0.00 | 0.00 | 0.00 | 99 | 1021.8 |
| 20260906073345 | 56 | 157 | 0.0 | 0.0 | 0.00 | 0.00 | 0.00 | 99 | 1021.8 |
| 20260906072842 | 56 | 151 | 0.0 | 0.0 | 0.00 | 0.00 | 0.00 | 99 | 1022.0 |
| 20260906072337 | 55 | 149 | 0.0 | 0.0 | 0.00 | 0.00 | 0.00 | 99 | 1021.7 |
| 20260906071833 | 55 | 149 | 0.0 | 0.0 | 0.00 | 0.00 | 0.00 | 99 | 1021.8 |
| 20260906071328 | 55 | 150 | 0.0 | 0.0 | 0.00 | 0.00 | 0.00 | 99 | 1021.9 |
| 20260906070824 | 55 | 156 | 0.0 | 0.0 | 0.00 | 0.00 | 0.00 | 99 | 1021.8 |
| 20260906070319 | 55 | 159 | 0.9 | 0.9 | 0.00 | 0.00 | 0.00 | 99 | 1022.0 |
| 20260906065814 | 55 | 150 | 0.0 | 0.0 | 0.00 | 0.00 | 0.00 | 99 | 1021.8 |
| 20260906065309 | 55 | 159 | 0.0 | 0.0 | 0.00 | 0.00 | 0.00 | 99 | 1021.7 |
| 20260906064805 | 55 | 149 | 0.0 | 0.0 | 0.00 | 0.00 | 0.00 | 99 | 1021.7 |
| 20260906064301 | 55 | 148 | 0.0 | 0.0 | 0.00 | 0.00 | 0.00 | 99 | 1021.9 |
| 20260906063755 | 55 | 149 | 0.0 | 0.0 | 0.00 | 0.00 | 0.00 | 99 | 1021.9 |
| 20260906063251 | 56 | 149 | 0.0 | 0.0 | 0.00 | 0.00 | 0.00 | 99 | 1021.7 |
| 20260906062746 | 56 | 149 | 0.0 | 0.0 | 0.00 | 0.00 | 0.00 | 99 | 1021.9 |
| 20260906062245 | 56 | 151 | 0.0 | 0.0 | 0.00 | 0.00 | 0.00 | 99 | 1021.9 |
| 20260906061741 | 57 | 149 | 0.0 | 0.0 | 0.00 | 0.00 | 0.00 | 99 | 1021.8 |
| 20260906061237 | 57 | 148 | 0.0 | 0.0 | 0.00 | 0.00 | 0.00 | 99 | 1021.5 |
| 20260906060732 | 57 | 150 | 0.0 | 0.0 | 0.00 | 0.00 | 0.00 | 99 | 1021.7 |
| 20260906060230 | 57 | 150 | 0.0 | 0.0 | 0.00 | 0.00 | 0.00 | 99 | 1021.6 |
| 20260906055725 | 57 | 147 | 0.0 | 0.0 | 0.00 | 0.00 | 0.00 | 99 | 1021.6 |
| 20260906055220 | 57 | 150 | 0.0 | 0.0 | 0.00 | 0.00 | 0.00 | 99 | 1021.6 |
| 20260906054715 | 57 | 150 | 0.0 | 0.0 | 0.00 | 0.00 | 0.00 | 99 | 1021.5 |
| 20260906054210 | 58 | 148 | 0.0 | 0.0 | 0.00 | 0.00 | 0.00 | 99 | 1021.4 |
| 20260906053707 | 58 | 151 | 0.0 | 0.9 | 0.00 | 0.00 | 0.00 | 99 | 1021.3 |
| 20260906053202 | 58 | 149 | 0.0 | 0.0 | 0.00 | 0.00 | 0.00 | 99 | 1021.3 |
| 20260906052657 | 58 | 150 | 0.0 | 0.0 | 0.00 | 0.00 | 0.00 | 99 | 1021.6 |
| 20260906052153 | 58 | 147 | 0.0 | 0.0 | 0.00 | 0.00 | 0.00 | 99 | 1021.3 |
| 20260906051650 | 59 | 148 | 0.0 | 0.0 | 0.00 | 0.00 | 0.00 | 99 | 1021.2 |
| 20260906051149 | 59 | 148 | 0.0 | 0.0 | 0.00 | 0.00 | 0.00 | 99 | 1021.4 |
| 20260906050645 | 59 | 150 | 0.0 | 0.0 | 0.00 | 0.00 | 0.00 | 99 | 1021.1 |
| 20260906050140 | 60 | 147 | 0.0 | 0.0 | 0.00 | 0.00 | 0.00 | 99 | 1021.4 |
| 20260906045638 | 60 | 147 | 0.0 | 0.0 | 0.00 | 0.00 | 0.00 | 99 | 1021.4 |
| 20260906045133 | 60 | 148 | 0.0 | 0.0 | 0.00 | 0.00 | 0.00 | 99 | 1021.4 |
| 20260906044630 | 60 | 158 | 0.0 | 0.0 | 0.00 | 0.00 | 0.00 | 99 | 1021.4 |
| 20260906044125 | 60 | 147 | 0.0 | 0.0 | 0.00 | 0.00 | 0.00 | 99 | 1021.2 |
| 20260906043621 | 60 | 149 | 0.0 | 0.0 | 0.00 | 0.00 | 0.00 | 99 | 1021.2 |
| 20260906043116 | 60 | 149 | 0.0 | 0.0 | 0.00 | 0.00 | 0.00 | 99 | 1021.1 |
| 20260906042615 | 60 | 158 | 0.0 | 0.0 | 0.00 | 0.00 | 0.00 | 99 | 1021.4 |
| 20260906042110 | 60 | 151 | 0.0 | 0.0 | 0.00 | 0.00 | 0.00 | 99 | 1021.4 |
| 20260906041606 | 60 | 153 | 0.0 | 0.0 | 0.00 | 0.00 | 0.00 | 99 | 1021.4 |
| 20260906041100 | 60 | 156 | 0.0 | 0.0 | 0.00 | 0.00 | 0.00 | 99 | 1021.2 |
| 20260906040556 | 60 | 149 | 0.0 | 0.0 | 0.00 | 0.00 | 0.00 | 99 | 1021.3 |
| 20260906040051 | 60 | 149 | 0.0 | 0.0 | 0.00 | 0.00 | 0.00 | 99 | 1021.2 |
| 20260906035547 | 60 | 150 | 0.0 | 0.0 | 0.00 | 0.00 | 0.00 | 99 | 1021.3 |
| 20260906035043 | 60 | 148 | 0.0 | 0.0 | 0.00 | 0.00 | 0.00 | 99 | 1021.1 |
| 20260906034542 | 60 | 165 | 0.0 | 0.0 | 0.00 | 0.00 | 0.00 | 99 | 1021.1 |
| 20260906034037 | 59 | 159 | 0.0 | 0.0 | 0.00 | 0.00 | 0.00 | 99 | 1020.9 |
| 20260906033532 | 59 | 151 | 0.0 | 0.0 | 0.00 | 0.00 | 0.00 | 99 | 1021.0 |
| 20260906033028 | 59 | 165 | 0.0 | 0.0 | 0.00 | 0.00 | 0.00 | 99 | 1021.1 |
| 20260906032525 | 59 | 150 | 0.0 | 0.0 | 0.00 | 0.00 | 0.00 | 99 | 1021.1 |
| 20260906032024 | 59 | 149 | 0.0 | 0.0 | 0.00 | 0.00 | 0.00 | 99 | 1021.2 |
| 20260906031520 | 60 | 156 | 0.0 | 0.0 | 0.00 | 0.00 | 0.00 | 99 | 1021.2 |
| 20260906031010 | 60 | 166 | 0.9 | 0.9 | 0.00 | 0.00 | 0.00 | 99 | 1021.0 |
| 20260906030509 | 60 | 154 | 0.9 | 0.9 | 0.00 | 0.00 | 0.00 | 99 | 1020.9 |
| 20260906030009 | 60 | 158 | 0.0 | 0.9 | 0.00 | 0.00 | 0.00 | 99 | 1020.8 |
| 20260906025508 | 60 | 174 | 0.0 | 0.0 | 0.00 | 0.00 | 0.00 | 99 | 1021.1 |
| 20260906025007 | 61 | 162 | 0.0 | 0.9 | 0.00 | 0.00 | 0.00 | 99 | 1021.1 |
| 20260906024502 | 61 | 149 | 0.0 | 0.0 | 0.00 | 0.00 | 0.00 | 99 | 1020.7 |
| 20260906023956 | 61 | 142 | 0.9 | 0.9 | 0.00 | 0.00 | 0.00 | 99 | 1021.3 |
| 20260906023452 | 61 | 162 | 0.9 | 0.9 | 0.00 | 0.00 | 0.00 | 99 | 1020.8 |
| 20260906022947 | 61 | 144 | 0.0 | 0.9 | 0.00 | 0.00 | 0.00 | 98 | 1020.9 |
| 20260906022443 | 61 | 146 | 0.0 | 0.0 | 0.00 | 0.00 | 0.00 | 98 | 1020.9 |
| 20260906021937 | 61 | 162 | 0.9 | 0.9 | 0.00 | 0.00 | 0.00 | 98 | 1020.7 |
| 20260906021432 | 61 | 147 | 0.0 | 0.0 | 0.00 | 0.00 | 0.00 | 98 | 1020.7 |
| 20260906020926 | 61 | 176 | 0.9 | 0.9 | 0.00 | 0.00 | 0.00 | 98 | 1021.0 |
| 20260906020421 | 62 | 162 | 0.9 | 0.9 | 0.00 | 0.00 | 0.00 | 97 | 1020.9 |
| 20260906015915 | 62 | 171 | 0.9 | 0.9 | 0.00 | 0.00 | 0.00 | 97 | 1020.8 |
| 20260906015415 | 62 | 174 | 0.9 | 0.9 | 0.00 | 0.00 | 0.00 | 97 | 1020.9 |
| 20260906014909 | 62 | 159 | 0.0 | 0.9 | 0.00 | 0.00 | 0.00 | 97 | 1020.8 |
| 20260906014409 | 62 | 149 | 0.0 | 0.0 | 0.00 | 0.00 | 0.00 | 97 | 1020.9 |
| 20260906013905 | 62 | 158 | 0.0 | 0.0 | 0.00 | 0.00 | 0.00 | 97 | 1020.9 |
| 20260906013401 | 63 | 157 | 0.0 | 0.0 | 0.00 | 0.00 | 0.00 | 96 | 1020.7 |
| 20260906012856 | 63 | 150 | 0.0 | 0.0 | 0.00 | 0.00 | 0.00 | 96 | 1020.7 |
| 20260906012351 | 63 | 150 | 0.0 | 0.0 | 0.00 | 0.00 | 0.00 | 95 | 1020.6 |
| 20260906011850 | 63 | 162 | 0.9 | 0.9 | 0.00 | 0.00 | 0.00 | 95 | 1020.9 |
| 20260906011345 | 63 | 150 | 0.0 | 0.0 | 0.00 | 0.00 | 0.00 | 95 | 1020.7 |
| 20260906010841 | 63 | 159 | 0.9 | 0.9 | 0.00 | 0.00 | 0.00 | 94 | 1020.6 |
| 20260906010337 | 63 | 155 | 0.0 | 0.9 | 0.00 | 0.00 | 0.00 | 94 | 1020.5 |
| 20260906005832 | 63 | 154 | 0.0 | 0.0 | 0.00 | 0.00 | 0.00 | 94 | 1020.6 |
| 20260906005331 | 64 | 171 | 0.0 | 0.9 | 0.00 | 0.00 | 0.00 | 94 | 1020.7 |
| 20260906004830 | 64 | 194 | 0.9 | 1.7 | 0.00 | 0.00 | 0.00 | 93 | 1020.8 |
| 20260906004330 | 64 | 153 | 0.9 | 0.9 | 0.00 | 0.00 | 0.00 | 93 | 1020.6 |
| 20260906003825 | 64 | 160 | 0.9 | 0.9 | 0.00 | 0.00 | 0.00 | 92 | 1020.8 |
| 20260906003321 | 65 | 156 | 0.9 | 0.9 | 0.00 | 0.00 | 0.00 | 92 | 1020.6 |
| 20260906002816 | 65 | 151 | 0.0 | 0.9 | 0.00 | 0.00 | 0.00 | 92 | 1020.6 |
| 20260906002315 | 65 | 151 | 0.0 | 0.9 | 0.00 | 0.00 | 0.00 | 91 | 1020.6 |
| 20260906001811 | 66 | 158 | 0.9 | 0.9 | 0.00 | 0.00 | 0.00 | 91 | 1020.6 |
| 20260906001306 | 66 | 146 | 0.0 | 0.0 | 0.00 | 0.00 | 0.00 | 90 | 1020.6 |
| 20260906000801 | 66 | 161 | 0.0 | 0.9 | 0.00 | 0.00 | 0.00 | 89 | 1020.8 |
| 20260906000256 | 67 | 159 | 0.9 | 0.9 | 0.00 | 0.00 | 0.00 | 89 | 1020.6 |
| 20260905235751 | 67 | 166 | 0.9 | 0.9 | 0.00 | 0.00 | 0.00 | 87 | 1020.7 |
| 20260905235250 | 68 | 146 | 0.0 | 0.0 | 0.00 | 0.00 | 0.00 | 87 | 1020.6 |
| 20260905234746 | 68 | 144 | 0.0 | 0.0 | 0.00 | 0.00 | 0.00 | 86 | 1020.4 |
| 20260905234241 | 68 | 150 | 0.0 | 0.9 | 0.00 | 0.00 | 0.00 | 85 | 1020.6 |
| 20260905233736 | 69 | 149 | 0.0 | 0.0 | 0.00 | 0.00 | 0.00 | 85 | 1020.5 |
| 20260905233236 | 69 | 142 | 0.0 | 0.9 | 0.00 | 0.00 | 0.00 | 84 | 1020.4 |
| 20260905232730 | 69 | 209 | 0.9 | 1.7 | 0.00 | 0.00 | 0.00 | 83 | 1020.7 |
| 20260905232226 | 69 | 140 | 0.9 | 0.9 | 0.00 | 0.00 | 0.00 | 83 | 1020.7 |
| 20260905231722 | 70 | 138 | 0.0 | 0.9 | 0.00 | 0.00 | 0.00 | 83 | 1020.7 |
| 20260905231217 | 70 | 157 | 1.7 | 1.7 | 0.00 | 0.00 | 0.00 | 82 | 1020.9 |
| 20260905230713 | 70 | 144 | 0.0 | 0.0 | 0.00 | 0.00 | 0.00 | 81 | 1020.8 |
| 20260905230210 | 71 | 98 | 1.7 | 1.7 | 0.00 | 0.00 | 0.00 | 80 | 1020.8 |
| 20260905225705 | 71 | 120 | 0.0 | 0.9 | 0.00 | 0.00 | 0.00 | 80 | 1020.7 |
| 20260905225200 | 71 | 143 | 2.6 | 2.6 | 0.00 | 0.00 | 0.00 | 79 | 1020.7 |
| 20260905224659 | 71 | 159 | 1.7 | 1.7 | 0.00 | 0.00 | 0.00 | 78 | 1021.0 |
| 20260905224154 | 72 | 170 | 0.9 | 0.9 | 0.00 | 0.00 | 0.00 | 79 | 1020.9 |
| 20260905223651 | 72 | 115 | 2.6 | 2.6 | 0.00 | 0.00 | 0.00 | 77 | 1020.9 |
| 20260905223148 | 72 | 91 | 1.7 | 1.7 | 0.00 | 0.00 | 0.00 | 76 | 1020.8 |
| 20260905222643 | 72 | 105 | 1.7 | 1.7 | 0.00 | 0.00 | 0.00 | 77 | 1020.8 |
| 20260905222143 | 72 | 129 | 0.9 | 1.7 | 0.00 | 0.00 | 0.00 | 76 | 1020.4 |
| 20260905221638 | 73 | 147 | 1.7 | 1.7 | 0.00 | 0.00 | 0.00 | 76 | 1020.6 |
| 20260905221135 | 73 | 191 | 1.7 | 2.6 | 0.00 | 0.00 | 0.00 | 75 | 1020.7 |
| 20260905220630 | 73 | 133 | 0.9 | 0.9 | 0.00 | 0.00 | 0.00 | 74 | 1020.5 |
| 20260905220127 | 73 | 105 | 1.7 | 1.7 | 0.00 | 0.00 | 0.00 | 74 | 1020.8 |
| 20260905215626 | 73 | 143 | 0.0 | 0.9 | 0.00 | 0.00 | 0.00 | 75 | 1020.8 |
| 20260905215122 | 74 | 182 | 0.9 | 1.7 | 0.00 | 0.00 | 0.00 | 74 | 1020.8 |
| 20260905214617 | 74 | 147 | 0.9 | 0.9 | 0.00 | 0.00 | 0.00 | 75 | 1020.6 |
| 20260905214112 | 73 | 139 | 0.9 | 1.7 | 0.00 | 0.00 | 0.00 | 76 | 1020.7 |
| 20260905213607 | 74 | 170 | 2.6 | 2.6 | 0.00 | 0.00 | 0.00 | 74 | 1020.5 |
| 20260905213102 | 73 | 142 | 0.9 | 0.9 | 0.00 | 0.00 | 0.00 | 76 | 1020.6 |
| 20260905212557 | 73 | 94 | 1.7 | 2.6 | 0.00 | 0.00 | 0.00 | 75 | 1020.4 |
| 20260905212056 | 74 | 152 | 0.9 | 0.9 | 0.00 | 0.00 | 0.00 | 75 | 1020.5 |
| 20260905211552 | 74 | 136 | 2.6 | 2.6 | 0.00 | 0.00 | 0.00 | 74 | 1020.6 |
| 20260905211047 | 74 | 136 | 0.9 | 0.9 | 0.00 | 0.00 | 0.00 | 74 | 1020.4 |
| 20260905210543 | 73 | 22 | 3.5 | 6.1 | 0.00 | 0.00 | 0.00 | 74 | 1020.6 |
| 20260905210038 | 74 | 158 | 1.7 | 2.6 | 0.00 | 0.00 | 0.00 | 73 | 1020.9 |
| 20260905205537 | 74 | 120 | 3.5 | 4.3 | 0.00 | 0.00 | 0.00 | 73 | 1020.9 |
| 20260905205037 | 75 | 148 | 0.9 | 1.7 | 0.00 | 0.00 | 0.00 | 74 | 1020.9 |
| 20260905204532 | 75 | 167 | 0.9 | 0.9 | 0.00 | 0.00 | 0.00 | 70 | 1020.6 |
| 20260905204026 | 75 | 170 | 0.0 | 0.9 | 0.00 | 0.00 | 0.00 | 73 | 1020.8 |
| 20260905203520 | 75 | 131 | 0.0 | 0.0 | 0.00 | 0.00 | 0.00 | 72 | 1020.7 |
| 20260905203016 | 74 | 155 | 1.7 | 1.7 | 0.00 | 0.00 | 0.00 | 72 | 1020.9 |
| 20260905202511 | 75 | 145 | 0.0 | 0.9 | 0.00 | 0.00 | 0.00 | 72 | 1020.7 |
| 20260905202007 | 75 | 170 | 1.7 | 1.7 | 0.00 | 0.00 | 0.00 | 72 | 1020.7 |
| 20260905201502 | 75 | 85 | 0.9 | 1.7 | 0.00 | 0.00 | 0.00 | 73 | 1021.0 |
| 20260905201002 | 75 | 106 | 2.6 | 2.6 | 0.00 | 0.00 | 0.00 | 72 | 1020.5 |
| 20260905200458 | 74 | 106 | 1.7 | 1.7 | 0.00 | 0.00 | 0.00 | 72 | 1020.4 |
| 20260905195956 | 75 | 108 | 1.7 | 2.6 | 0.00 | 0.00 | 0.00 | 74 | 1020.5 |
| 20260905195451 | 75 | 128 | 0.0 | 0.0 | 0.00 | 0.00 | 0.00 | 73 | 1020.6 |
| 20260905194947 | 75 | 137 | 1.7 | 1.7 | 0.00 | 0.00 | 0.00 | 71 | 1020.9 |
| 20260905194446 | 75 | 113 | 1.7 | 2.6 | 0.00 | 0.00 | 0.00 | 71 | 1020.6 |
| 20260905193941 | 75 | 147 | 0.9 | 0.9 | 0.00 | 0.00 | 0.00 | 71 | 1020.8 |
| 20260905193441 | 74 | 109 | 0.9 | 1.7 | 0.00 | 0.00 | 0.00 | 73 | 1021.0 |
| 20260905192936 | 75 | 186 | 0.9 | 2.6 | 0.00 | 0.00 | 0.00 | 71 | 1020.9 |
| 20260905192431 | 75 | 126 | 0.9 | 0.9 | 0.00 | 0.00 | 0.00 | 70 | 1021.1 |
| 20260905191926 | 76 | 38 | 3.5 | 6.1 | 0.00 | 0.00 | 0.00 | 71 | 1021.1 |